Regional Weather Roundup
Issued by NWS

Home | Current Version | Previous Version | Graphics & Text | Print | Product List | Glossary On
Versions: 1 2 3 4 5 6 7 8 9 10 11 12 13 14 15 16 17 18 19 20 21 22 23 24 25 26 27 28 29 30 31 32 33 34 35 36 37 38 39 40 41 42 43 44 45 46 47 48 49 50
000
ASUS45 KBOU 251807
RWRCO

WEATHER ROUNDUP FOR COLORADO
NATIONAL WEATHER SERVICE DENVER/BOULDER CO
1100 AM MST TUE NOV 25 2014

NOTE: "FAIR" INDICATES FEW OR NO CLOUDS BELOW 12000 FEET WITH NO
SIGNIFICANT WEATHER AND/OR OBSTRUCTIONS TO VISIBILITY.

COZ001>005-013-030-031-251900-
...NORTHWEST COLORADO...

CITY           SKY/WX    TMP DP  RH WIND       PRES   REMARKS
CRAIG          CLOUDY    24  17  74 NE7       30.23F WCI  16
HAYDEN         CLOUDY    21  16  79 E7        30.23F WCI  13
MEEKER         CLOUDY    28  14  55 VRB7      30.28F WCI  21
MOUNT WERNER   NOT AVBL
STEAMBOAT SPGS CLOUDY    17  14  90 CALM      30.22F VSB 1
WALDEN         CLOUDY    23  14  68 SW15G23   30.11F WCI  10
$$

COZ006>008-011-251900-
...WEST CENTRAL VALLEYS...

CITY           SKY/WX    TMP DP  RH WIND       PRES   REMARKS
GRAND JUNCTION CLOUDY    30  15  53 E6        30.39R WCI  24
MONTROSE       CLOUDY    28  13  53 CALM      30.40R
EAGLE          NOT AVBL
RIFLE          CLOUDY    22  16  78 CALM      30.39S
DELTA          CLOUDY    32  20  63 CALM      30.40S
NUCLA          CLOUDY    32  14  47 CALM      30.43F
$$

COZ017>023-064>068-251900-
...SOUTHWEST COLORADO...

CITY           SKY/WX    TMP DP  RH WIND       PRES   REMARKS
DURANGO        MOSUNNY   29   9  43 VRB3      30.34F
CORTEZ         PTSUNNY   37  10  32 NE7       30.39F
PAGOSA SPRINGS MOSUNNY   26   4  40 SW3       30.33F
TELLURIDE      CLOUDY    23   9  55 SE5       30.37S WCI  16
WOLF CREEK PAS MOSUNNY   18   3  53 MISG      30.23S
$$

COZ009-010-012-014-032>034-037-058>063-251900-
...CENTRAL COLORADO...

CITY           SKY/WX    TMP DP  RH WIND       PRES   REMARKS
ASPEN          LGT SNOW  20  15  81 CALM      30.29S
BUENA VISTA    PTSUNNY   31  11  43 NW35G46   30.09S WCI  15
COPPER MTN     CLOUDY    12   5  73 W20G26    30.12S WCI  -6
BERTHOUD PASS  NOT AVBL
COTTONWOOD PAS PTSUNNY   27  10  50 NW26G43   30.03F WCI  11
GUNNISON       PTSUNNY   12   3  67 SE3       30.37F
KREMMLING      LGT SNOW  23  18  80 W15G21    30.21F WCI  10
LEADVILLE      LGT SNOW  15  10  80 N17G23    30.18S VSB 3/4 WCI  -1
MONARCH PASS     N/A      9   5  85 MISG      30.24R
SALIDA         PTSUNNY   38   9  30 W33G49    30.15F
SUNLIGHT       LGT SNOW N/A N/A N/A CALM      30.22F
WILKERSON PASS NOT AVBL
$$

COZ069>075-251900-
...SAN LUIS VALLEY/SANGRE DE CRISTO MOUNTAINS...

CITY           SKY/WX    TMP DP  RH WIND       PRES   REMARKS
ALAMOSA        MOSUNNY   27   2  34 E5        30.26F WCI  22
LA VETA PASS   CLOUDY    16   1  53 MISG      30.05S
SAGUACHE       NOT AVBL
$$

COZ035-036-038>040-251900-
...NORTHERN COLORADO FRONT RANGE...

CITY           SKY/WX    TMP DP  RH WIND       PRES   REMARKS
DENVER INTL AP CLOUDY    42  12  29 W15G24    29.93F
DMNS CITY PARK   N/A     44  11  25 NW12G26   29.94F
AURORA         PTSUNNY   41  11  29 W21G26    29.95F
FRONT RANGE AP NOT AVBL
ERIE MUNI ARPT PTSUNNY   47  10  22 NW18G32   29.92F
BOULDER MUN AP PTSUNNY   46  12  25 W32G47    29.89F
CENTENNIAL     CLOUDY    41  12  30 NW13G24   29.95F
BROOMFIELD     PTSUNNY   45  10  24 W33       29.93F
FORT COLLINS   PTSUNNY   27  19  74 N5        29.93F WCI  21
LONGMONT       PTSUNNY   52  11  19 SE3       29.91F
$$

COZ041-046-047-076>085-087-088-251900-
...PIKES PEAK/PALMER DIVIDE AND SOUTHERN FOOTHILLS...

CITY           SKY/WX    TMP DP  RH WIND       PRES   REMARKS
COLO. SPRINGS  CLOUDY    34  17  50 SE10      29.98F WCI  26
A. F. ACADEMY  CLOUDY    40  11  30 NW14G28   29.96S
ELLICOTT       NOT AVBL
FALCON         NOT AVBL
FORT CARSON    CLOUDY    32  16  50 E3        29.97F
LIMON          CLOUDY    41  11  29 W12       29.97F
MONUMENT HILL  CLOUDY    36  12  38 W18       29.97S
TRINIDAD       MOSUNNY   38   9  30 SW3       30.05F
$$

COZ042>045-048>051-090-091-251900-
...NORTHEAST COLORADO...

CITY           SKY/WX    TMP DP  RH WIND       PRES   REMARKS
GREELEY ARPT   CLOUDY    32  18  55 NW6       29.93F WCI  26
AKRON          CLOUDY    42  13  30 W13       29.92F
BURLINGTON     PTSUNNY   40  10  29 SW22      30.00F
WRAY           CLOUDY    45   7  21 SW14      29.95F
STERLING       CLOUDY    41  21  45 SW7       29.92F
HOLYOKE        CLOUDY    43  14  31 SW17      29.93F
FORT MORGAN    CLOUDY    43  14  30 SW8       29.93F
$$

COZ086-089-092>099-251900-
...SOUTHEAST COLORADO...

CITY           SKY/WX    TMP DP  RH WIND       PRES   REMARKS
PUEBLO         CLOUDY    44  10  25 W24G33    29.98F
LA JUNTA       MOSUNNY   49  13  23 W13G20    30.01F
LAMAR          MOSUNNY   46  11  24 W14       30.02F
SPRINGFIELD      N/A     44  11  26 SW16G22   30.04F
$$


USA.gov is the U.S. government's official web portal to all federal, state and local government web resources and services.